Regional Weather Roundup
Issued by NWS Portland, ME

Home | Current Version | Previous Version | Text Only | Print | Product List | Glossary On
Versions: 1 2 3 4 5 6 7 8 9 10 11 12 13 14 15 16 17 18 19 20 21 22 23 24 25 26 27 28 29 30 31 32 33 34 35 36 37 38 39 40 41 42 43 44 45 46 47 48 49 50
000
ASUS41 KGYX 031110
RWRGYX
WEATHER ROUNDUP FOR MAINE AND NEW HAMPSHIRE
NATIONAL WEATHER SERVICE GRAY ME
700 AM EDT THU SEP 03 2015

MEZ002-005-006-010-012-015-018-020-021-024-026-027-029-031200-
MAINE

CITY           SKY/WX    TMP DP  RH WIND       PRES   REMARKS
PORTLAND       PTCLDY    66  64  93 CALM      29.85R
SANFORD        PTCLDY    63  57  82 CALM      29.86R
BAR HARBOR     MOSUNNY   63  63 100 CALM      29.83R
WISCASSET      CLEAR     63  61  93 CALM      29.85R FOG
ROCKLAND       CLEAR     64  63  94 CALM      29.82S
FRYEBURG       PTCLDY    60  60 100 CALM      29.88R FOG
LEWISTONAUBURN PTCLDY    63 N/A N/A N5        29.86R
AUGUSTA        PTCLDY    67  64  90 CALM      29.86R
WATERVILLE     PTCLDY    64  61  88 CALM      29.83R
BANGOR         PTCLDY    68  65  90 CALM      29.84R
GREENVILLE       N/A     67  65  93 NW8       29.86R
MILLINOCKET    CLEAR     73  67  81 NW8       29.84R
HOULTON        MOSUNNY   66  63  90 CALM      29.81R FOG
PRESQUE ISLE   PTSUNNY   61  55  82 CALM      29.82R VSB 1/2
FRENCHVILLE    SUNNY     62  57  83 NW17      29.84R
CARIBOU        SUNNY     65  60  84 NW7       29.82R
$$

NHZ002-005-008-009-011-012-014-031200-
NEW HAMPSHIRE

CITY           SKY/WX    TMP DP  RH WIND       PRES   REMARKS
PORTSMOUTH     MOCLDY    66  64  93 NW2       29.83R FOG
ROCHESTER      PTCLDY    64  62  93 NW6       29.85R FOG
NASHUA         CLEAR     65  62  90 W3        29.86R
MANCHESTER     MOCLDY    67  61  81 N3        29.85R
CONCORD        PTCLDY    62  60  93 NE3       29.87R
LACONIA        PTCLDY    64  61  88 CALM      29.87R
PLYMOUTH       FOG       60  59  97 CALM      29.89R VSB 1/4
BERLIN         PTCLDY    59  56  89 CALM      29.92R FOG
WHITEFIELD     PTCLDY    59  56  89 CALM      29.92R FOG
JAFFREY        CLEAR     61  59  93 CALM      29.91R FOG
KEENE          CLOUDY    63  57  82 CALM      29.90R VSB 1/4
LEBANON        FOG       66  64  93 CALM      29.90R VSB 1/4
MT WASHINGTON  FOG       54  54 100 NW29        N/A  VSB 0
$$

VTZ005-007-008-031200-
VERMONT

CITY           SKY/WX    TMP DP  RH WIND       PRES   REMARKS
ST JOHNSBURY     N/A     63  61  93 MISG      29.89R
MONTPELIER     FOG       62  61  96 CALM      29.96R VSB<1/4
BURLINGTON     CLOUDY    69  65  86 CALM      29.89R
$$

MAZ007-012-024-CTZ003-RIZ002-NYZ038-NYZ072-031200-
SOUTHERN NEW ENGLAND AND NY

CITY           SKY/WX    TMP DP  RH WIND       PRES   REMARKS
BOSTON         PTCLDY    74  65  73 NW6       29.84R
WORCESTER      CLEAR     70  63  78 NW3       29.89R
NANTUCKET        N/A    N/A N/A N/A MISG      29.86R
PROVIDENCE     PTCLDY    67  64  90 W5        29.86R
HARTFORD       PTCLDY    65  62  90 CALM      29.86R
ALBANY         MOCLDY    65  62  90 CALM      29.90R
NEW YORK CITY  CLEAR     77  65  66 N3        29.86R
$$

ANZ081-ANZ082-ANZ150-NHZ014-MEZ023>029-031200-
COASTAL MARINE OBSERVATIONS

STATION/POSITION TIME  TEMP    WIND        PRES    WAVE
                       AIR SEA DIR/SP/G            HT/PER
                 (UTC) (F)     (DEG/KT/KT) (MB)    (FT/S)
MOUNT DESERT ROC 1100   63     280/ 10/ 10 1010.2R
MATINICUS ROCK   1100          350/  7/  8 1009.8R
ISLE OF SHOALS   1100   70     340/  9/  9 1009.9R
JEFFREYS LEDGE   1003      65                N/A     1/12
CASHES LEDGE BUO 1050   67                 1009.8R   2/ 5
GEORGES BANK BUO 1050   71 69  230/  6/  8 1011.9R   2/ 9
$$

.............KEY..............
   WCI - WIND CHILL
   TC  - TEMPERATURE IN CELSIUS
   VSB - VISIBILITY IN MILES
   HX  - HEAT INDEX
   FAIR- INDICATES FEW OR NO CLOUDS BELOW 12,000 FT, WITH NO
         SIGNIFICANT WEATHER AND/OR OBSTRUCTIONS TO VISIBILITY.





USA.gov is the U.S. government's official web portal to all federal, state and local government web resources and services.